Theta_e
307 307 306 306 306 306 306 306 306 307 307 307 306 305 305 303 302 301 301 301 300 300 301 300 301 301 302 302 301 301 301 304 309 311 311 309 303 302 302 302 303 303 305 308 309 309 308 310 310 309 310 311 314 315 313 313 315 316 319 319 316 315 313 311 311 311 311 311 311 313 314 314 314 314 312 312 313 312 313 313 312 312 312 312 312 312 312 312
307 307 306 306 306 306 306 306 307 307 307 307 307 307 306 305 304 302 301 301 301 300 300 300 300 300 301 301 301 301 301 307 313 312 310 307 302 301 302 302 303 303 305 308 309 308 308 309 308 309 311 312 314 315 316 315 314 316 319 316 314 314 312 311 311 311 311 312 312 311 313 314 314 314 312 313 314 312 312 312 311 312 314 315 313 312 313 313
307 306 306 306 306 306 306 306 307 307 307 307 308 307 307 307 306 304 302 301 301 300 300 300 300 300 300 300 301 300 304 314 317 312 310 306 302 302 302 302 303 303 306 309 309 308 308 308 307 309 311 313 313 315 317 317 314 315 315 314 316 314 312 310 311 313 313 313 313 311 311 312 314 313 313 315 315 313 312 312 312 313 315 317 316 313 313 314
307 306 306 306 306 306 306 306 306 307 307 307 307 307 308 308 307 306 303 302 301 300 300 300 300 300 300 300 301 301 308 318 317 311 308 303 302 302 302 302 303 303 306 309 309 309 309 308 308 308 310 312 313 314 316 317 316 315 312 312 315 312 311 310 312 315 314 313 312 312 312 313 314 314 315 317 315 312 312 312 313 315 316 316 317 315 313 314
307 306 306 306 306 306 306 306 306 306 307 307 307 307 308 308 308 308 306 304 301 300 300 300 300 300 300 300 300 303 313 321 314 308 305 302 302 302 302 303 302 304 307 309 310 310 309 310 309 309 309 311 314 314 314 315 314 313 311 311 313 311 311 311 312 315 314 312 313 313 314 314 314 314 315 316 315 312 312 314 313 313 315 315 316 315 314 315
307 306 306 306 306 306 306 306 306 306 306 307 307 307 308 308 309 308 307 305 302 300 300 300 300 300 300 300 302 308 315 317 311 307 304 301 302 302 302 302 302 306 309 310 310 310 310 310 310 310 309 310 313 313 313 315 313 313 313 311 313 312 312 311 313 316 314 312 314 314 315 314 314 313 313 314 314 313 315 318 315 312 314 314 313 314 315 317
307 306 306 306 306 306 306 306 306 306 306 306 307 307 307 308 309 308 308 306 304 301 299 300 299 300 300 301 309 314 314 312 308 307 303 301 303 303 303 304 304 307 310 309 309 310 310 310 309 309 309 309 312 313 314 314 313 313 314 313 315 316 315 314 313 314 314 313 315 315 315 315 314 314 313 314 314 314 317 320 317 313 312 312 313 315 316 318
307 307 306 306 306 305 305 306 306 306 306 306 306 307 307 307 308 308 307 307 305 301 300 300 299 301 299 302 313 317 314 312 307 304 302 302 303 302 304 306 306 308 310 310 310 310 310 310 310 309 309 309 310 313 314 313 315 315 314 316 317 318 318 316 314 314 315 315 315 315 316 316 315 314 313 313 313 315 318 319 318 316 314 314 315 316 316 317
307 307 306 306 306 306 305 306 306 306 306 306 306 307 307 307 308 307 307 306 305 302 300 299 300 300 300 307 315 315 313 310 305 303 302 302 302 303 306 306 306 309 310 311 311 311 312 311 310 309 309 311 309 313 314 312 316 317 316 318 317 316 316 316 317 317 317 316 315 315 316 315 315 315 314 314 315 315 318 319 318 317 316 316 315 315 316 317
306 306 306 306 306 306 306 306 306 306 306 306 307 306 306 307 307 307 306 306 304 303 301 300 300 299 304 313 315 313 311 306 304 303 302 303 303 305 306 304 307 310 311 312 312 312 312 311 310 309 309 310 308 312 315 314 315 316 317 317 315 316 316 316 318 317 316 315 315 316 316 315 315 315 313 314 318 318 319 319 317 316 315 316 316 316 315 316
307 306 306 306 306 305 306 306 306 306 306 306 307 306 306 306 306 305 305 304 302 302 301 300 300 299 306 311 310 312 310 305 304 304 303 303 303 305 305 304 307 310 312 314 312 312 312 311 310 308 309 309 308 312 316 315 315 315 315 315 315 316 316 316 317 316 314 314 316 316 315 314 314 315 313 314 319 320 319 318 317 316 315 314 316 316 316 315
308 307 306 306 306 305 305 306 305 306 306 306 306 306 305 305 305 303 302 301 300 301 301 300 300 302 308 311 310 312 309 305 305 304 303 303 303 304 303 304 306 308 312 315 314 311 310 310 310 310 311 309 309 314 317 314 313 314 313 314 316 319 319 319 318 316 313 312 315 314 313 314 315 317 318 317 319 319 317 317 317 317 315 313 314 315 315 313
309 308 307 307 306 305 305 306 306 306 306 306 306 306 304 303 303 301 299 299 300 300 300 300 300 303 310 313 311 310 308 306 304 303 304 303 304 305 304 305 306 307 310 313 312 310 309 309 310 312 312 309 311 314 313 312 312 314 314 314 314 317 321 321 317 316 314 313 315 314 311 310 315 320 323 321 320 319 316 315 315 315 316 314 314 314 314 313
310 309 308 307 307 306 305 305 306 306 306 306 305 306 305 301 300 300 299 299 300 300 300 300 299 305 312 312 310 309 307 306 303 304 304 304 307 307 306 306 307 308 308 310 310 308 309 309 310 313 311 309 311 311 312 313 313 314 316 317 314 313 320 320 315 315 315 314 313 313 310 307 309 317 324 322 320 319 316 314 313 314 316 315 315 315 315 314
310 310 309 308 308 307 306 305 306 306 306 305 305 306 304 301 299 299 299 299 300 301 300 300 300 307 313 311 310 308 305 305 304 305 305 306 308 308 309 309 308 308 307 309 309 308 308 309 312 315 313 309 310 311 315 317 315 314 316 320 316 312 320 321 316 315 316 314 312 311 309 308 307 312 322 323 320 320 317 314 314 315 316 316 316 315 315 315
310 310 310 309 308 307 306 306 305 306 306 305 305 305 303 300 299 299 300 300 301 301 301 307 308 308 311 311 311 308 305 306 305 306 305 306 308 308 309 309 309 309 309 309 308 308 308 309 312 314 312 311 312 313 314 315 316 316 315 318 316 312 316 320 318 315 313 312 313 312 309 309 309 310 318 321 320 320 316 314 315 316 317 316 316 316 316 316
310 310 310 309 309 308 307 306 306 306 305 305 305 305 301 300 300 300 301 300 301 302 302 308 312 308 309 309 309 310 309 307 306 306 305 304 307 308 308 310 311 311 311 309 308 309 309 310 313 311 311 313 314 313 314 317 318 317 314 315 315 311 312 316 318 316 312 312 314 314 311 310 310 309 311 314 316 317 314 313 315 316 316 315 316 316 316 316
310 310 310 309 309 308 308 307 306 305 305 305 305 303 300 300 301 302 305 304 303 306 305 307 308 307 311 311 308 310 310 306 306 307 306 304 305 307 309 310 311 311 312 313 310 311 312 311 311 311 313 314 314 313 316 320 317 316 315 315 315 313 311 312 317 317 314 315 315 313 311 310 309 309 310 311 315 316 313 313 315 315 314 314 316 316 316 316
311 310 310 310 310 309 308 307 307 305 304 305 305 302 301 305 306 305 309 310 308 311 314 311 308 309 316 315 310 308 307 306 306 306 306 305 305 307 309 309 311 311 314 316 313 312 312 311 313 316 318 317 316 316 319 319 314 314 316 316 315 313 310 310 317 317 313 314 313 310 309 308 308 308 308 310 313 314 313 313 316 316 314 315 316 317 317 317
312 311 310 310 310 309 308 307 307 305 304 305 304 304 307 312 313 312 310 311 310 310 314 314 311 312 318 315 309 306 306 306 305 307 308 307 306 307 308 309 311 312 313 316 315 312 310 312 316 320 322 319 318 317 317 315 312 312 315 316 316 314 314 314 317 315 311 311 311 309 309 308 307 308 308 309 311 312 313 314 316 316 315 315 316 316 316 316
313 312 311 311 310 310 309 307 306 305 304 305 305 306 309 312 314 313 308 309 311 309 311 312 311 313 315 312 307 305 308 308 307 309 308 306 308 310 311 310 313 314 313 315 315 311 311 314 317 320 321 318 317 316 314 313 313 314 315 315 316 316 316 316 317 313 309 310 311 310 310 309 308 309 309 310 311 312 314 315 315 314 314 315 315 316 316 315
314 313 312 311 311 310 308 307 306 305 304 305 306 307 308 308 307 306 304 306 309 310 311 311 312 314 312 309 307 307 311 313 312 312 308 306 309 312 313 311 314 317 315 316 316 315 314 316 318 317 316 316 316 314 312 312 314 315 315 316 316 316 316 317 317 312 311 312 312 310 310 310 309 310 310 310 312 313 315 316 315 313 313 315 316 315 315 314
314 313 312 312 312 310 309 307 306 305 305 305 307 307 308 307 302 301 305 307 306 309 313 313 314 315 312 310 308 308 311 311 313 314 309 308 310 311 312 311 313 316 316 317 316 316 319 320 318 314 315 318 317 314 313 313 314 314 314 317 318 316 314 316 315 313 313 313 312 311 311 310 310 311 312 313 314 315 317 317 318 317 315 315 316 314 313 313
315 314 313 312 311 310 309 307 306 305 305 306 306 306 307 306 302 302 307 310 307 309 314 314 314 313 313 311 307 308 310 308 312 313 308 310 311 310 312 313 313 314 316 318 316 315 320 320 315 313 315 317 317 316 314 314 315 314 315 316 317 315 313 313 314 313 312 313 314 313 313 315 315 316 318 317 316 316 317 318 318 318 317 316 316 314 313 313
315 314 313 313 311 310 308 306 306 305 306 306 306 306 304 303 302 301 307 311 309 310 311 311 313 311 311 309 306 308 309 309 314 312 308 310 312 310 311 312 313 314 315 319 318 317 319 316 312 314 314 313 316 317 316 316 313 313 316 315 315 314 313 312 313 312 312 315 316 314 313 319 319 316 316 315 315 316 317 316 315 316 316 315 315 314 313 311
316 315 313 313 311 310 307 306 306 305 306 306 306 305 302 302 301 301 308 311 308 310 309 309 312 311 311 309 307 308 308 310 312 311 308 310 312 311 311 312 311 314 318 318 317 316 316 312 311 315 315 314 315 315 316 316 312 312 315 314 313 313 312 313 313 312 312 312 313 312 310 315 316 311 312 314 315 315 315 315 314 314 315 314 313 312 310 308
316 315 314 313 311 309 307 306 305 304 305 304 304 303 301 302 300 301 309 310 308 312 310 309 310 309 311 310 309 310 309 311 309 308 308 308 310 310 312 314 311 314 317 315 315 317 314 311 312 315 316 315 315 316 317 314 311 315 314 311 312 312 312 313 311 310 311 310 312 312 310 314 316 313 312 315 314 313 314 314 314 314 314 313 311 310 308 308
316 315 314 312 312 310 308 306 304 303 303 302 302 301 301 301 300 305 311 307 309 316 311 308 306 306 310 309 310 311 310 312 313 310 306 306 309 310 311 314 314 314 316 315 317 318 314 314 315 316 317 317 315 315 317 313 311 316 313 310 311 310 310 310 309 310 311 311 314 315 311 314 318 316 312 314 314 313 313 312 313 314 313 312 310 307 307 308
316 315 314 312 312 311 309 307 305 304 303 302 301 301 301 300 301 310 312 305 311 318 311 309 307 306 309 309 309 310 307 310 313 309 305 306 308 308 309 313 315 315 314 314 317 317 314 311 313 315 316 317 312 311 314 313 312 313 312 311 311 311 310 309 309 310 310 312 317 317 312 312 317 315 311 314 314 313 312 310 312 312 311 311 308 306 307 309
316 315 314 312 311 309 308 307 306 306 305 302 301 300 300 302 305 309 308 305 314 319 310 310 310 308 309 308 309 310 309 309 309 306 308 309 308 308 309 312 314 313 312 314 317 315 310 306 307 311 312 311 309 309 312 312 312 311 310 311 313 313 311 309 309 308 312 319 317 313 310 308 313 317 312 311 312 312 311 310 312 311 310 309 306 306 308 308
315 315 313 312 310 308 308 307 306 307 306 304 301 299 300 306 308 306 305 306 313 317 310 310 311 309 308 309 309 309 310 310 308 308 310 309 309 309 310 311 312 312 313 316 317 314 310 308 308 308 308 309 308 310 311 309 310 309 309 311 315 316 313 310 309 308 315 323 317 311 311 309 312 316 313 310 309 310 311 311 311 310 309 307 305 306 308 307
315 315 313 312 311 309 308 307 307 307 306 305 302 301 303 306 305 305 306 307 310 314 313 313 311 309 308 309 311 310 309 311 310 310 311 310 309 309 310 312 312 314 318 317 315 316 314 312 309 307 306 307 309 311 312 310 309 309 310 312 316 318 317 315 315 315 319 320 314 309 310 311 312 311 309 309 307 309 311 311 311 310 308 306 305 307 309 307
314 315 313 312 311 310 308 307 307 306 305 304 301 303 306 304 304 305 305 307 311 313 313 314 312 310 310 311 313 310 309 312 311 310 312 312 311 310 311 312 314 317 320 317 316 317 316 312 308 309 310 308 310 314 317 316 312 311 313 314 315 316 315 316 318 320 320 318 312 306 306 311 314 312 310 309 308 310 311 311 310 309 308 306 305 308 308 307
313 314 313 311 310 310 308 306 306 305 304 302 300 302 305 304 306 308 306 306 312 314 312 313 313 312 311 312 313 310 310 312 310 311 314 313 314 314 313 313 315 316 314 313 316 318 320 319 312 311 312 309 310 314 315 316 313 312 312 311 313 314 313 316 319 319 318 318 314 306 307 315 318 316 313 310 309 310 311 311 310 309 307 305 305 308 308 307
313 314 312 310 308 308 307 307 307 304 302 301 301 303 304 304 306 308 308 308 313 316 312 311 312 313 313 313 312 311 312 314 312 312 314 313 313 314 313 313 314 314 313 313 316 314 317 323 314 309 310 308 309 311 310 312 313 311 310 312 314 314 312 315 317 315 312 314 315 309 312 318 318 315 313 310 310 310 310 310 308 308 306 304 306 308 307 308
313 313 311 309 307 307 307 307 306 303 301 301 301 303 304 305 306 307 309 313 314 316 313 311 311 312 314 313 311 311 312 315 314 312 312 311 311 312 313 315 315 314 313 313 315 315 316 319 310 306 308 306 307 309 307 311 314 312 312 314 312 309 309 314 315 311 309 313 316 314 316 319 317 316 313 310 310 310 310 309 306 307 306 303 307 309 307 307
311 310 309 307 307 307 306 307 305 301 300 301 302 303 304 305 306 307 310 313 313 314 313 312 312 313 315 315 313 312 312 314 313 312 313 312 313 314 312 315 317 313 312 313 315 318 320 318 308 306 310 306 304 308 307 306 309 312 315 313 308 307 309 311 313 313 313 316 316 316 319 319 316 316 313 309 311 312 310 307 306 307 305 303 307 309 308 307
309 309 308 307 307 307 306 306 303 300 300 301 302 304 305 305 305 305 307 309 311 314 312 310 311 314 315 316 315 312 311 313 312 312 314 313 315 317 312 315 318 313 313 314 313 316 318 317 309 305 309 307 304 309 311 307 305 308 311 308 307 313 314 310 311 314 315 316 318 318 318 317 317 319 317 314 314 312 308 306 306 307 305 304 307 308 308 307
307 309 309 308 307 306 306 305 301 299 301 302 303 304 305 305 304 304 306 307 309 311 310 310 310 312 315 317 317 313 310 312 312 312 315 314 315 318 313 314 316 312 311 311 310 313 314 315 313 305 306 308 306 309 313 311 306 304 306 305 305 310 313 311 311 312 313 314 317 318 316 317 323 324 321 318 314 310 309 308 308 308 307 305 306 309 308 308
307 308 308 307 305 305 305 303 300 300 302 303 303 304 305 305 303 304 305 306 308 309 309 310 310 310 313 314 315 314 310 311 311 310 314 314 314 316 314 314 315 310 308 308 310 314 311 311 315 307 303 308 310 310 312 313 309 305 306 307 306 305 307 309 310 310 312 313 315 316 316 318 321 319 316 315 312 310 311 311 310 310 308 305 306 309 309 308
307 308 307 304 304 303 302 301 300 301 303 304 304 304 304 304 303 304 305 305 308 309 308 309 310 310 310 311 313 313 310 310 311 310 312 313 313 315 314 314 312 308 307 307 308 312 312 313 316 310 306 310 311 308 306 309 309 307 308 309 309 308 308 312 313 310 309 310 312 314 316 315 315 315 314 313 312 312 311 310 309 310 308 304 306 310 310 309
306 308 305 302 302 303 302 302 302 302 303 304 305 305 304 303 304 304 304 305 307 308 307 307 308 307 307 311 313 312 311 311 311 311 312 312 313 315 314 311 309 306 307 308 308 310 311 313 315 312 309 308 306 302 301 304 306 307 309 310 310 310 311 315 317 313 310 309 308 310 314 315 313 314 315 314 313 312 311 309 308 310 309 304 305 310 310 309
304 305 303 301 302 303 304 304 303 303 304 304 304 304 303 303 304 304 304 304 305 307 306 304 305 306 306 310 311 311 312 311 311 313 312 312 314 312 309 310 307 305 308 308 308 309 309 312 314 314 310 305 301 299 300 302 305 307 308 308 308 311 312 313 313 311 312 312 310 312 315 315 313 313 314 314 313 311 310 308 307 310 310 305 304 309 310 309
300 300 299 300 302 303 306 307 305 304 304 304 304 304 303 303 303 304 304 304 304 305 305 304 305 307 308 309 309 310 313 311 311 313 311 312 313 305 304 309 307 306 310 310 310 309 310 314 316 315 314 312 309 307 306 305 304 306 308 306 307 311 312 309 307 307 311 313 314 315 315 313 313 314 314 313 313 312 310 308 307 309 310 306 304 308 311 309
299 298 298 298 299 299 302 304 305 304 304 304 304 304 304 303 303 303 304 304 304 305 305 304 305 307 307 308 307 309 311 310 311 313 310 311 312 304 304 308 307 308 310 310 313 312 311 314 314 313 314 315 317 320 318 312 305 304 308 307 306 310 309 308 308 309 310 311 313 315 314 312 313 313 312 312 313 314 312 308 307 309 310 307 304 307 311 310
299 300 300 299 298 297 298 299 302 304 305 305 305 305 305 305 304 303 303 304 304 304 304 304 305 305 305 305 305 305 308 309 309 310 309 310 310 304 303 304 305 307 308 309 312 310 309 313 313 313 314 314 318 319 314 311 310 309 309 307 306 307 307 307 310 310 310 311 312 313 312 311 311 311 310 312 314 315 313 309 307 308 308 306 304 306 309 310
299 301 303 301 300 300 299 299 300 302 305 306 306 306 306 306 306 304 303 303 304 304 304 304 304 304 304 304 304 304 305 307 307 307 309 312 308 303 301 302 302 304 306 309 309 307 308 312 312 314 315 315 318 315 309 310 315 315 312 308 306 306 306 306 307 309 312 313 311 312 312 312 311 310 309 310 312 313 312 311 310 310 308 306 305 304 306 309
299 301 301 301 301 302 302 301 300 300 303 305 307 308 308 306 306 306 304 303 304 303 304 304 304 304 304 304 304 304 304 305 306 308 311 311 308 305 303 301 301 304 306 305 304 305 307 311 312 311 311 312 314 313 309 309 311 311 312 312 309 306 306 306 306 308 313 313 311 313 316 314 311 309 309 309 309 309 310 310 310 310 308 306 305 304 304 307
299 299 299 298 298 299 299 300 300 300 301 304 306 308 309 308 307 307 306 304 303 303 304 306 305 304 304 304 304 304 304 305 305 307 310 310 310 310 308 306 305 304 304 303 303 304 306 311 314 310 308 310 311 310 310 308 307 307 309 311 309 306 305 305 305 306 309 312 311 311 313 311 308 307 307 307 307 308 308 308 308 308 308 307 305 304 303 305
297 296 296 296 296 296 297 299 301 302 302 303 305 307 308 308 307 307 306 305 305 304 303 305 306 305 304 304 304 303 304 305 304 306 309 309 309 309 309 310 309 304 301 302 303 303 305 311 314 309 306 308 308 309 309 307 306 306 306 308 308 307 305 304 304 305 306 308 309 308 308 307 306 305 305 305 306 306 307 307 307 307 308 307 305 304 303 303
295 294 294 294 295 296 298 299 300 302 302 302 304 306 308 309 308 308 307 306 307 307 304 304 305 305 304 304 304 303 304 304 304 307 309 308 308 308 307 309 311 306 302 302 303 304 304 307 310 308 307 308 307 308 307 305 306 305 304 305 307 307 306 305 304 305 305 306 306 306 306 306 305 304 306 307 307 307 307 307 307 308 308 306 305 305 304 303
294 294 293 294 295 295 297 298 299 301 303 303 303 304 307 308 308 308 309 307 307 307 305 304 304 305 305 304 304 303 303 303 304 307 308 307 308 309 308 309 309 306 303 302 304 305 304 306 310 309 309 309 306 305 307 306 305 305 304 303 303 304 305 305 304 305 305 305 305 305 306 305 305 306 307 309 310 309 309 308 308 308 308 306 305 305 304 303
Wind_Speed
11 11 11 11 12 12 12 12 11 11 13 12 11 11 12 12 12 13 13 13 13 14 14 15 15 15 16 15 16 18 17 13 10 8 6 4 6 7 7 7 8 10 11 10 11 12 8 5 3 2 4 3 1 0 1 1 1 2 2 3 4 3 1 2 2 2 1 3 2 2 4 3 4 4 4 4 3 8 9 8 8 10 9 12 8 4 6 4
11 11 11 11 12 12 12 12 12 12 13 13 12 12 12 13 13 13 13 13 13 13 14 14 15 15 15 15 16 18 16 11 10 8 5 5 8 7 7 6 7 9 10 10 11 11 8 5 4 4 4 2 2 1 0 0 1 2 2 4 3 3 1 0 2 3 2 3 4 4 5 4 4 4 3 4 6 5 9 9 8 9 9 10 6 5 2 0
11 11 11 12 12 12 12 13 13 13 13 14 13 13 13 13 13 13 13 13 13 13 13 13 14 14 14 14 15 16 14 10 8 5 5 6 7 7 6 5 7 8 7 8 10 9 8 7 7 6 3 2 1 2 0 1 1 1 1 3 2 3 3 2 4 3 3 3 4 4 5 5 5 4 2 5 8 6 8 9 7 7 3 2 2 3 4 1
11 11 12 12 12 12 13 13 13 13 14 14 14 14 14 14 14 13 13 13 13 13 12 12 12 13 13 13 15 14 9 7 4 2 4 5 6 6 5 6 7 6 6 6 9 9 7 7 7 5 3 3 2 3 2 1 1 1 1 3 2 3 3 3 5 4 4 4 2 4 5 6 5 3 3 4 8 7 8 6 2 4 5 4 4 2 1 1
11 12 12 12 12 12 13 13 14 14 14 15 15 16 16 16 15 14 14 13 13 12 12 11 11 12 12 12 13 10 5 3 1 3 2 4 5 6 6 7 7 5 7 7 9 10 8 8 6 4 3 3 3 3 1 2 2 1 5 6 3 3 2 2 5 5 3 1 2 4 5 5 3 3 5 6 7 8 5 2 3 4 6 6 6 4 3 3
11 12 12 13 13 13 13 13 14 15 15 15 16 16 16 17 16 16 15 14 13 11 11 10 10 10 10 11 11 5 2 2 3 4 2 3 4 6 6 7 7 7 8 9 9 8 7 6 5 3 3 3 3 3 1 2 1 2 5 5 3 2 3 2 4 3 1 1 3 4 4 4 5 6 6 9 13 12 7 5 5 5 4 5 5 4 4 5
12 12 13 13 13 13 13 14 14 15 15 15 16 16 17 17 17 17 15 14 13 11 9 9 8 8 9 10 7 2 3 2 4 5 1 2 4 6 5 7 9 9 8 8 6 6 5 4 4 3 3 4 3 2 3 1 2 2 4 4 2 1 3 5 4 1 1 2 4 4 4 4 6 6 5 10 15 12 9 7 5 4 5 5 4 5 6 6
12 12 13 13 13 14 14 14 14 15 15 16 16 16 17 17 17 17 16 15 13 11 8 7 6 6 8 8 4 3 3 3 5 5 1 2 4 5 6 6 8 8 5 5 6 6 4 4 4 2 3 3 0 1 2 1 3 5 5 4 2 0 3 5 4 3 3 4 4 3 6 7 8 6 8 15 15 10 8 7 5 3 4 6 6 7 7 7
13 13 13 13 14 14 14 14 14 15 15 16 16 16 17 17 17 17 17 15 14 12 8 6 5 4 6 5 3 4 2 5 6 4 1 2 4 4 6 5 5 6 4 3 6 6 3 3 3 3 3 2 1 1 3 1 2 4 4 4 4 5 5 5 4 4 3 4 2 3 9 9 8 7 10 18 17 11 8 6 5 5 6 7 7 7 7 8
14 13 13 13 14 14 15 15 14 15 15 16 16 16 17 17 17 17 16 15 14 12 8 6 4 2 3 2 3 3 2 6 5 4 2 2 3 4 4 4 4 6 5 3 6 6 4 3 4 3 3 2 3 1 4 2 0 1 5 6 8 10 7 4 4 3 3 4 4 5 9 10 7 4 8 11 8 6 5 6 6 6 7 8 7 8 7 8
15 15 14 13 14 14 15 15 15 15 16 16 16 17 17 17 17 16 16 15 14 11 8 5 3 3 3 2 2 3 4 6 4 4 3 2 3 3 2 3 4 5 5 2 3 5 4 5 5 3 2 1 2 1 3 1 1 2 4 7 10 10 7 6 5 3 2 2 4 5 11 13 6 5 12 10 3 6 7 6 7 7 7 8 8 8 7 7
16 15 15 15 16 16 15 15 15 15 16 17 17 17 17 17 16 15 15 14 12 9 7 4 2 3 3 4 5 7 6 6 6 5 3 1 2 2 2 2 3 3 4 3 2 3 3 5 5 4 1 2 2 2 2 1 1 2 3 4 8 6 6 7 6 4 3 1 1 3 9 9 6 10 16 11 5 6 6 6 7 8 8 7 8 7 6 6
15 15 15 17 18 18 16 15 15 16 16 17 17 18 17 16 15 14 14 12 10 8 5 3 2 3 3 3 5 10 10 8 7 5 3 1 1 2 3 2 2 2 1 2 1 1 2 3 4 4 3 3 2 1 1 0 1 2 1 3 5 4 4 4 6 4 3 1 1 1 5 6 6 13 13 6 7 7 6 7 7 7 7 6 6 6 6 6
16 16 17 18 18 19 17 15 16 16 16 17 18 18 18 16 15 14 13 11 9 6 3 2 3 2 3 3 4 9 11 9 8 6 4 2 3 1 2 3 3 1 0 2 1 2 1 2 3 4 3 2 1 0 2 1 2 1 2 2 3 3 2 2 5 5 3 1 1 2 2 8 8 7 8 5 7 7 7 7 6 6 6 6 6 6 6 6
18 17 17 18 19 19 18 16 16 16 16 17 18 20 19 16 14 14 12 9 6 3 2 2 4 2 3 5 5 7 9 8 7 9 7 5 4 4 4 3 2 1 0 2 0 2 1 1 2 3 1 1 1 2 3 2 3 2 1 2 2 3 1 2 4 4 2 1 2 3 2 9 10 5 4 7 7 7 8 8 7 7 7 6 6 6 6 6
21 19 18 19 19 19 18 16 16 17 17 18 20 21 19 15 14 13 10 7 4 2 1 2 4 4 4 4 3 4 6 5 7 11 9 7 5 3 6 5 2 1 0 1 1 2 2 2 1 1 0 1 2 2 4 3 2 3 3 3 4 3 2 2 2 1 2 0 3 5 3 7 9 5 1 4 6 7 9 9 8 7 7 6 6 6 6 6
23 21 19 18 19 19 18 16 16 17 18 19 21 22 18 14 12 11 8 4 3 2 3 4 3 4 4 2 3 3 6 7 9 11 8 8 7 4 6 4 3 3 1 2 2 2 2 2 1 0 1 2 3 1 2 4 2 1 2 3 5 5 5 3 2 1 2 2 3 5 5 10 14 12 11 10 10 10 11 10 8 6 6 7 7 7 7 7
23 22 19 17 18 18 18 17 17 17 18 20 21 22 17 11 10 9 5 3 2 1 4 6 3 3 4 4 3 2 7 9 10 9 7 8 7 5 6 3 2 3 2 2 3 2 2 2 2 1 2 3 3 3 2 2 1 2 4 4 5 6 6 6 3 1 1 3 4 6 8 13 17 16 14 12 10 10 11 9 7 6 6 7 7 7 7 7
24 24 21 19 19 18 17 16 17 18 18 18 20 18 11 6 6 6 6 4 3 2 3 4 6 2 1 4 4 5 8 11 9 8 7 7 7 6 5 2 2 2 1 1 3 3 2 1 2 2 3 3 3 3 2 1 1 3 4 3 6 6 7 8 2 2 2 2 6 8 10 13 16 16 13 10 8 9 10 9 6 6 6 7 6 6 6 6
25 25 23 22 20 18 17 16 16 16 15 16 19 15 5 2 3 3 4 6 8 8 4 5 10 4 1 3 6 7 8 8 6 6 9 9 8 6 4 3 2 1 2 2 2 1 0 1 4 4 2 4 4 3 3 2 2 2 3 4 6 6 8 8 2 1 1 1 6 8 10 15 17 17 14 11 9 9 10 8 6 6 7 7 7 7 6 7
27 26 24 23 21 19 17 15 14 14 14 13 14 9 2 2 2 1 1 7 14 18 14 9 13 9 2 4 10 10 5 3 3 5 11 9 7 5 4 5 3 2 4 3 2 1 1 3 5 2 3 6 5 4 4 1 0 2 3 4 6 5 8 6 1 2 2 1 5 7 10 16 17 16 14 11 9 9 9 8 7 8 8 8 8 8 8 5
28 27 25 24 22 20 17 15 13 13 13 10 8 7 5 5 3 3 3 6 11 18 18 13 11 9 3 6 12 10 2 3 4 5 12 9 5 4 3 4 3 3 3 3 2 1 3 4 2 4 5 6 5 4 3 1 1 3 4 3 5 4 5 4 2 3 2 0 5 6 9 15 18 17 15 13 10 8 8 7 7 8 8 8 7 7 4 1
30 28 27 24 22 20 18 15 12 12 12 10 8 9 6 5 3 7 4 6 8 12 13 12 12 10 6 4 10 11 4 6 6 6 14 11 4 3 3 4 5 4 4 5 4 4 4 4 4 5 5 6 4 3 3 1 2 4 4 3 5 3 2 2 0 2 3 5 8 8 8 13 16 13 12 12 8 5 5 5 6 6 6 6 6 5 2 1
33 29 27 25 22 20 17 13 11 12 13 12 15 16 10 8 9 11 5 4 8 8 11 15 12 9 9 6 11 14 6 5 4 5 16 14 4 3 3 4 5 5 5 6 7 7 4 2 4 4 3 3 3 4 4 2 2 4 6 5 5 3 2 3 4 6 7 7 6 7 7 8 8 6 7 6 5 4 4 4 5 6 6 7 7 5 2 1
34 32 28 25 23 20 15 11 10 13 13 11 17 18 13 14 15 11 4 3 7 3 4 10 7 6 10 9 13 13 3 4 2 3 15 12 4 4 2 2 3 5 7 7 7 7 4 2 3 5 3 2 3 4 5 4 2 3 4 2 1 4 4 5 7 7 6 4 1 2 4 6 3 3 5 2 6 4 5 6 7 7 8 7 5 1 3 4
35 33 30 26 23 19 12 6 7 9 9 10 14 13 11 9 8 8 1 3 8 2 3 6 6 8 11 10 10 8 1 3 1 5 11 7 3 2 1 1 1 3 4 4 3 3 1 1 2 4 5 4 4 3 4 6 1 3 2 2 4 3 4 5 5 4 3 4 5 1 1 5 5 6 8 4 7 7 7 8 8 7 5 2 3 4 5 5
37 34 32 28 24 22 12 3 6 6 4 7 9 10 10 5 5 7 1 3 8 3 5 3 3 6 9 9 10 6 1 3 4 4 5 3 2 1 2 4 2 1 2 2 1 1 3 4 1 2 4 5 4 4 5 8 4 2 2 2 3 3 4 3 3 1 3 6 7 4 4 4 5 7 7 6 7 6 6 6 5 2 1 5 5 5 4 5
38 35 32 30 28 27 17 7 6 7 5 6 7 5 6 4 6 4 1 2 5 3 5 0 2 3 4 4 4 2 0 3 4 1 1 2 2 1 2 5 2 3 4 3 4 1 3 5 6 6 4 3 5 3 6 8 4 1 2 2 1 1 1 1 1 4 4 5 5 4 4 2 5 7 5 4 5 6 4 2 1 2 4 5 2 4 4 5
37 36 33 32 29 27 24 15 9 8 8 6 7 4 4 6 5 2 2 4 2 4 3 2 2 2 4 4 1 1 1 1 1 1 2 2 2 0 2 3 1 3 2 2 3 1 2 2 4 7 5 4 4 2 3 5 3 2 1 1 1 2 2 2 2 3 3 2 3 4 3 2 5 6 4 2 3 4 2 1 1 2 4 2 1 3 4 5
34 37 34 32 27 25 25 20 17 15 12 6 4 3 5 5 2 3 4 7 1 2 1 1 1 2 7 8 3 3 2 1 2 3 3 2 0 1 1 1 1 2 1 1 1 1 3 1 1 2 3 3 3 2 2 2 2 2 1 3 2 3 3 2 2 1 2 3 3 2 1 0 3 6 4 3 4 5 3 2 2 2 3 2 3 4 4 4
30 36 34 32 30 28 21 14 21 24 17 10 2 3 4 1 3 4 9 4 2 0 1 1 1 5 11 10 5 5 4 3 5 5 4 2 2 2 2 1 1 1 0 3 2 2 3 1 1 1 1 2 2 2 2 3 4 3 1 2 3 1 2 2 0 1 1 3 2 3 5 2 2 6 4 3 4 5 2 1 2 3 3 3 3 4 4 3
25 33 35 34 33 30 20 10 15 20 17 11 2 1 3 2 3 11 9 2 2 3 2 2 3 5 9 7 2 5 6 4 5 6 4 5 4 5 5 5 5 2 3 5 3 2 1 2 2 1 1 2 3 3 1 2 3 3 2 1 1 1 1 1 1 1 2 3 2 3 6 2 6 8 9 10 6 2 4 2 1 1 3 3 3 4 2 3
23 32 36 35 34 31 24 13 6 8 12 10 4 2 1 5 10 14 10 4 2 0 3 3 3 3 6 5 2 5 4 2 6 6 5 6 5 6 7 7 6 3 2 5 4 3 1 3 1 2 1 3 5 4 2 2 4 4 3 3 3 0 2 3 3 2 2 3 3 3 4 3 6 7 10 13 7 3 6 4 4 2 1 2 3 4 1 3
21 31 36 35 35 32 28 19 7 7 13 11 3 2 5 10 11 5 7 10 5 3 3 3 3 2 4 3 1 6 4 1 7 6 4 6 5 5 7 9 9 3 2 2 3 5 4 3 2 3 1 4 6 3 2 3 4 4 3 4 3 2 2 3 2 3 3 3 3 2 2 4 4 4 6 6 4 5 6 6 5 4 3 1 3 3 2 2
19 32 37 32 32 29 28 24 12 11 17 11 2 5 9 12 8 2 4 7 3 1 1 3 4 2 3 3 2 5 3 1 6 5 3 6 5 5 6 8 11 7 3 3 2 4 4 3 1 1 1 4 4 1 0 3 3 2 3 5 2 3 3 2 3 3 1 2 2 2 3 5 5 5 4 5 6 6 6 5 4 4 3 2 3 3 2 1
17 31 33 29 31 30 30 27 18 20 19 8 3 7 10 10 6 4 3 1 2 3 4 2 2 2 4 3 3 6 2 2 5 5 3 5 4 5 6 6 10 11 8 5 3 2 2 1 1 1 1 0 2 2 0 2 2 2 2 2 3 3 4 2 3 2 3 0 3 4 5 5 3 6 4 4 4 4 5 5 4 4 2 1 4 3 3 1
14 29 25 23 31 34 34 29 24 27 16 5 7 9 9 8 6 5 2 4 1 4 6 4 4 6 6 3 4 7 4 2 4 4 3 4 4 7 9 5 7 14 12 5 1 2 4 1 3 2 0 1 3 3 2 2 1 3 2 4 2 2 3 3 1 2 0 3 4 4 7 6 2 4 4 2 2 5 6 5 4 4 3 1 6 3 4 1
11 23 19 23 37 38 36 32 30 27 10 3 10 10 7 7 9 11 8 5 3 1 2 5 5 6 6 5 4 6 6 3 4 4 3 4 4 7 12 5 3 9 10 4 1 1 4 2 3 1 1 1 1 2 0 2 2 3 2 3 1 1 1 2 1 1 2 4 4 4 7 6 3 4 4 5 7 7 7 4 3 5 5 3 6 3 4 2
10 11 6 19 38 41 40 37 29 18 5 6 11 10 6 8 12 13 11 7 2 4 5 5 4 4 5 5 3 5 7 6 6 5 4 4 4 5 10 5 1 3 3 5 4 2 3 3 3 2 1 3 1 2 3 1 2 3 1 1 1 1 3 3 2 1 1 3 4 4 5 4 6 6 6 9 9 8 7 5 6 6 6 5 6 4 4 3
6 4 2 15 35 41 43 35 20 8 5 8 10 8 4 6 10 14 15 9 3 3 4 5 6 5 4 3 2 4 6 5 6 5 4 4 4 3 4 3 4 4 2 3 2 1 2 3 3 1 2 2 2 3 5 6 5 3 2 2 2 1 2 1 1 2 3 2 3 3 6 7 6 5 6 9 8 8 7 6 7 7 6 6 6 5 5 4
5 4 1 19 38 43 37 20 8 6 5 6 9 9 7 5 4 10 15 11 5 2 2 4 5 4 4 3 2 4 5 4 6 5 4 4 4 3 2 2 7 8 4 3 1 2 3 3 3 3 2 4 3 2 1 3 5 5 5 6 5 4 4 1 2 1 2 2 2 1 5 10 6 4 6 6 7 8 8 7 7 7 7 6 6 5 6 5
5 3 2 23 46 46 25 5 3 6 5 7 9 6 5 5 4 6 8 5 3 2 1 3 4 6 7 5 3 3 5 4 6 6 5 6 5 2 2 1 7 10 6 3 2 2 2 2 3 3 3 3 2 1 1 1 1 2 3 4 5 6 5 4 3 3 1 1 1 3 2 10 5 2 3 6 7 7 7 7 6 6 7 6 6 5 6 6
4 4 2 23 46 39 17 6 6 5 5 7 8 5 5 6 6 7 8 7 5 4 3 4 5 7 8 5 2 3 4 4 6 7 5 5 4 2 5 2 7 9 4 2 1 1 0 2 3 2 1 1 1 1 1 2 1 1 3 4 4 4 4 4 5 4 2 3 3 3 4 9 4 1 4 7 7 6 6 7 7 6 6 5 6 6 6 6
4 5 1 19 36 24 9 8 8 8 8 6 7 8 7 5 6 10 12 12 9 5 4 8 8 6 6 4 2 4 5 5 6 8 6 4 3 2 6 3 5 5 2 1 3 4 3 3 4 4 1 0 1 1 2 3 1 3 3 4 5 4 6 4 3 3 1 5 8 4 6 9 3 1 3 5 6 6 6 7 7 6 6 6 6 6 6 7
4 3 0 11 21 11 3 5 6 10 13 10 9 11 9 6 7 13 14 11 11 8 5 6 4 1 3 3 3 5 7 6 6 5 4 2 1 2 4 5 2 1 2 4 4 3 4 3 5 6 6 6 4 3 3 3 3 3 3 7 8 8 9 5 3 3 3 5 8 6 8 10 6 2 2 3 5 6 7 7 7 6 6 6 6 6 6 6
3 3 2 3 6 5 3 3 2 5 12 13 10 10 14 11 5 9 13 8 10 12 10 7 2 3 5 7 8 10 9 7 5 3 3 3 0 2 3 4 4 2 4 7 6 2 0 3 4 7 7 7 6 4 3 5 6 4 6 9 10 10 11 7 3 4 5 4 5 10 10 11 16 14 8 5 7 7 6 7 7 6 7 7 7 7 6 6
2 4 3 1 2 4 5 5 3 3 7 11 8 7 15 17 7 5 11 10 10 11 8 6 6 7 10 12 12 12 12 10 6 4 3 3 2 2 1 2 2 2 4 5 4 2 1 3 6 7 8 6 4 4 4 5 6 7 8 10 11 10 11 11 9 8 6 6 8 12 8 10 20 20 14 9 8 7 5 6 8 7 7 7 7 7 7 7
3 3 3 2 2 3 5 7 8 7 9 11 10 9 16 20 15 9 10 10 8 9 7 6 11 18 19 15 12 12 14 14 11 6 3 3 3 2 0 1 1 1 2 3 1 2 2 4 4 5 9 7 2 5 6 4 3 6 9 10 12 13 14 16 16 11 8 7 12 9 7 11 18 18 17 16 11 8 6 6 6 6 7 8 8 8 8 8
3 2 3 2 3 5 8 10 10 10 12 11 9 11 15 19 21 17 10 6 5 10 13 13 16 21 21 18 15 13 13 13 13 10 5 4 5 4 2 2 3 3 1 1 1 1 2 2 1 3 6 9 6 4 6 6 5 6 8 10 12 15 18 17 16 14 12 13 16 12 9 15 18 19 20 19 13 8 6 6 6 7 7 8 9 9 9 9
1 1 2 2 2 6 8 8 7 7 8 10 9 9 10 15 20 16 9 9 9 9 13 17 19 19 21 22 19 19 19 17 16 11 7 7 6 3 4 4 4 4 3 3 1 1 2 1 1 3 2 6 7 7 6 7 8 9 10 10 11 13 14 14 14 12 9 13 18 15 13 16 20 20 17 15 13 9 7 8 8 7 7 8 9 9 9 9
1 1 3 3 4 5 6 6 6 6 5 7 9 8 9 14 16 14 11 13 14 11 14 22 25 18 16 19 20 24 27 23 18 12 9 10 8 5 5 4 7 7 6 5 3 2 3 2 1 3 3 5 5 7 6 2 6 12 12 11 13 13 12 13 13 12 12 14 16 11 8 14 20 16 9 8 10 9 9 9 8 7 8 9 10 9 9 9
1 2 3 2 4 6 6 6 6 7 5 5 10 11 12 14 14 14 11 9 13 15 15 22 24 15 11 18 25 28 28 24 16 9 6 6 4 5 5 5 8 10 8 7 4 3 5 4 2 3 4 3 2 3 2 3 7 14 11 14 18 17 14 13 13 14 16 14 10 9 12 17 15 10 7 8 8 8 8 8 7 7 8 8 9 10 9 9
Wind_Direction
323 324 325 327 329 331 330 331 331 329 328 325 321 317 314 309 303 300 299 301 300 303 305 309 314 317 322 328 334 334 331 327 311 285 257 274 308 309 322 335 341 347 352 356 353 342 323 236 214 337 286 252 186 100 329 311 333 288 263 250 260 279 1 46 2 34 348 309 329 343 22 346 297 311 323 347 269 261 271 254 249 243 236 243 245 77 67 26
319 321 323 325 325 328 330 332 331 329 329 328 327 324 319 314 308 302 299 300 301 301 303 308 313 315 319 326 334 333 333 327 298 275 234 267 306 323 332 340 348 352 357 352 345 344 341 329 350 345 290 248 147 127 352 135 151 253 286 269 267 345 16 18 18 37 0 319 336 335 343 328 307 320 333 300 268 272 285 276 265 252 233 221 199 115 117 32
312 316 319 321 323 325 326 329 330 329 330 329 328 327 325 319 313 306 299 298 299 301 303 307 310 313 317 325 333 333 334 321 291 256 210 265 310 330 332 347 355 357 2 339 321 323 320 317 315 306 282 257 169 127 153 165 159 241 309 271 275 4 341 16 54 56 39 19 336 311 326 314 286 291 280 275 282 275 266 268 269 270 258 153 114 149 178 166
305 309 312 316 319 321 322 325 327 327 327 327 327 327 327 324 318 310 304 299 298 299 301 305 308 311 315 324 331 334 330 300 279 170 205 279 319 332 336 357 358 358 8 334 307 303 294 293 286 278 279 262 168 139 207 170 13 13 236 273 333 14 340 45 69 71 62 48 326 298 305 289 280 294 255 263 294 273 241 243 267 324 336 344 326 305 354 350
299 302 306 310 314 317 319 320 322 325 326 326 325 326 327 326 323 318 311 304 299 298 300 303 306 308 314 324 328 334 330 289 165 150 229 300 322 336 351 360 2 10 8 330 299 292 268 261 267 258 257 246 164 165 207 109 59 301 245 264 322 353 323 54 78 83 75 37 282 279 282 286 306 292 246 231 252 248 233 288 359 346 329 318 305 312 334 294
293 298 301 304 310 313 314 316 318 320 322 324 324 323 325 326 325 322 317 310 303 299 298 301 304 307 315 324 325 324 306 289 153 171 245 325 329 347 356 354 8 17 358 320 293 290 274 260 255 242 243 245 201 182 119 87 91 276 251 260 314 331 287 334 60 108 158 256 249 262 283 309 308 281 251 230 237 243 252 281 307 313 299 293 293 287 267 240
289 294 297 300 304 308 312 313 314 317 320 321 322 322 323 325 325 324 319 314 308 300 296 300 304 309 319 326 322 268 249 256 168 178 252 342 338 354 359 354 7 12 352 333 325 315 315 295 267 271 273 262 227 172 102 109 180 237 271 280 314 1 271 301 344 293 255 261 248 272 294 279 264 278 283 249 244 247 255 258 268 288 272 253 246 239 241 237
286 289 294 297 299 303 307 310 310 314 317 317 319 320 320 322 324 323 319 316 313 305 299 301 302 311 329 337 319 259 244 204 164 179 221 2 347 3 16 2 355 357 343 346 350 326 328 311 300 334 280 270 199 156 113 184 209 209 253 293 310 321 259 273 290 289 305 273 254 267 265 252 244 263 283 266 261 257 250 248 224 209 237 241 242 238 236 239
283 286 290 293 297 300 302 306 308 310 313 316 317 317 318 319 321 322 319 317 312 308 305 302 301 313 333 336 295 283 243 165 163 182 189 10 359 16 23 11 346 347 334 344 350 324 318 330 351 14 305 305 290 224 121 187 235 212 271 326 306 282 276 268 253 253 270 254 216 239 255 255 247 256 267 259 261 262 237 216 189 179 221 237 242 243 243 242
284 285 285 289 293 297 300 303 305 307 310 312 315 315 315 317 318 319 318 317 312 309 307 301 300 318 331 310 255 274 201 160 169 188 193 355 21 41 15 11 16 1 342 353 11 356 343 337 347 342 308 292 270 265 121 158 275 276 308 322 292 277 277 269 253 246 262 258 222 241 268 263 234 221 262 254 245 236 185 177 188 196 228 232 232 237 240 238
288 287 283 286 290 293 298 300 302 305 307 311 313 313 313 314 315 316 317 316 314 311 305 302 305 313 308 268 239 238 189 167 178 198 203 337 24 52 14 25 43 14 344 346 35 17 352 336 330 303 285 322 287 174 137 95 5 326 335 318 285 267 257 242 236 228 221 253 217 237 275 270 228 203 248 248 164 145 158 184 204 215 232 233 237 232 228 232
285 284 283 290 293 294 295 296 300 302 305 309 310 310 311 310 311 314 316 314 316 312 301 298 303 324 305 259 235 224 206 187 191 206 207 344 7 26 36 54 57 33 348 341 35 16 342 342 327 287 287 336 295 176 145 35 319 319 3 307 287 268 249 227 207 188 163 157 200 259 289 276 205 212 244 240 173 155 175 207 216 226 233 234 240 232 226 223
278 278 283 293 297 298 295 293 297 299 303 307 310 312 308 307 311 314 313 311 314 309 302 290 277 319 300 269 225 214 215 211 208 210 213 191 54 24 29 60 62 56 10 4 20 350 329 343 319 296 318 308 280 149 208 120 173 308 196 239 293 283 248 199 168 148 136 163 224 305 316 295 224 222 241 219 169 174 194 222 229 238 234 227 236 230 228 219
272 273 279 289 297 300 298 293 294 297 301 304 309 311 307 308 311 311 308 305 309 309 300 265 270 303 270 260 237 218 212 211 213 198 193 170 134 104 38 71 62 6 149 95 348 310 317 337 304 291 298 275 289 146 226 189 162 256 192 207 264 256 257 144 149 145 144 213 202 78 285 281 287 252 227 179 166 185 215 238 244 252 244 225 227 223 225 220
268 270 273 284 295 301 299 294 293 295 297 301 308 310 307 308 309 307 303 297 306 309 295 274 255 252 282 265 246 227 208 206 208 193 186 168 176 192 157 130 79 6 153 136 236 310 291 295 289 278 252 142 296 270 259 216 187 210 242 277 237 221 256 196 178 153 148 234 168 130 249 274 298 299 184 161 174 199 226 246 243 250 250 228 220 218 221 220
268 270 272 282 292 297 299 297 294 294 295 301 307 307 305 306 307 300 292 286 289 285 262 294 240 214 284 276 195 201 199 202 193 190 193 173 186 196 144 144 145 120 314 176 244 289 253 262 275 288 323 199 227 248 283 272 220 197 209 272 290 283 286 216 209 145 135 176 190 190 244 282 286 293 204 182 214 230 241 250 241 243 249 234 223 219 218 216
266 271 276 284 290 294 298 299 297 294 296 304 308 308 306 306 299 287 282 267 261 268 232 270 262 216 252 215 171 207 181 177 176 180 194 183 177 170 153 157 155 157 222 221 240 252 219 202 182 228 230 242 260 240 319 298 277 261 236 273 294 296 310 287 277 325 128 158 221 216 229 262 269 279 284 266 258 258 255 256 247 237 238 230 221 217 214 208
264 269 275 281 285 291 296 300 302 298 299 306 309 309 308 302 285 274 264 224 214 293 261 267 267 233 243 209 181 136 137 154 168 166 174 183 171 163 173 176 156 165 209 222 221 203 187 187 178 265 236 211 233 202 200 267 244 297 302 305 303 305 301 282 270 302 220 199 244 262 258 264 270 275 274 264 258 255 256 258 247 234 236 231 220 215 214 211
262 265 269 274 276 284 293 297 302 304 304 307 313 315 312 300 282 257 222 197 170 199 243 205 190 209 250 185 144 99 119 140 157 163 164 168 157 158 176 180 171 173 258 229 184 183 188 188 185 256 250 185 185 197 187 115 79 294 296 291 290 294 281 279 278 182 240 270 263 265 267 271 278 280 276 272 263 255 258 256 234 222 236 238 231 226 221 222
260 261 264 267 270 278 286 291 299 307 306 310 324 328 318 278 274 239 199 209 216 231 263 179 188 233 331 139 132 126 134 144 160 168 163 159 148 153 173 174 161 194 248 213 164 185 95 235 232 236 207 133 113 78 77 72 47 310 297 273 265 271 275 280 291 167 119 304 259 260 273 278 281 281 281 281 269 256 254 247 225 214 226 233 231 231 229 226
258 258 261 262 265 272 276 284 295 304 303 310 325 323 330 351 289 294 252 235 228 232 251 226 205 231 252 133 149 151 140 173 218 167 162 164 153 160 171 168 171 199 211 180 117 63 66 240 242 201 121 112 108 86 77 88 72 262 254 272 272 259 269 281 94 139 101 63 263 269 281 281 281 281 284 282 269 255 243 229 222 219 219 224 223 225 228 222
256 255 257 258 261 264 267 278 288 298 299 300 302 275 291 322 305 343 320 263 241 227 236 239 225 232 209 144 167 172 156 206 211 171 169 167 165 189 164 159 208 207 165 145 126 158 226 229 186 115 109 102 98 90 84 173 224 238 235 268 278 259 276 302 78 117 112 135 268 282 288 283 282 281 282 275 258 242 228 212 215 221 220 223 224 226 233 278
253 252 254 254 256 257 260 271 283 292 285 272 260 248 269 293 314 348 316 273 271 230 221 223 222 220 197 180 182 177 190 206 202 187 173 167 170 204 173 177 217 215 174 175 191 225 238 212 144 129 132 116 112 127 132 208 222 218 217 234 265 293 350 293 354 19 312 270 271 289 291 281 281 281 274 259 235 209 203 212 231 235 233 236 239 235 235 307
249 249 250 250 250 252 254 264 274 276 268 258 251 246 253 261 286 327 325 266 268 226 206 208 210 212 198 191 181 179 204 211 197 182 172 170 157 155 194 201 206 225 217 196 203 232 241 149 131 146 158 145 143 157 168 208 250 221 210 221 260 314 356 267 311 337 302 278 276 293 292 276 266 258 258 228 175 160 179 213 253 255 248 246 246 235 194 80
247 245 245 243 245 243 243 253 259 261 258 254 256 256 266 266 270 295 320 277 265 229 199 204 198 205 185 163 167 170 195 208 175 145 171 183 172 134 180 200 196 227 218 194 202 237 246 150 162 163 157 176 175 183 186 189 270 269 216 205 350 6 341 303 331 341 318 311 299 330 324 294 264 252 272 170 149 196 198 204 231 235 234 231 225 179 54 28
244 242 239 236 236 229 225 242 240 245 244 246 258 262 274 275 253 253 252 297 265 208 131 188 176 182 168 149 159 144 85 220 88 106 162 195 235 172 197 162 177 240 194 162 180 245 210 146 223 174 154 161 181 238 209 163 148 296 262 32 39 9 320 316 348 1 327 302 275 236 229 283 303 292 273 188 176 213 196 201 221 222 229 206 80 45 21 358
242 239 234 229 225 214 203 209 211 206 217 258 276 261 260 256 191 218 214 305 268 169 125 195 178 165 156 155 168 147 144 188 102 96 159 186 228 226 218 177 139 211 183 112 153 241 130 138 195 173 157 159 179 244 201 157 149 226 226 41 37 335 314 333 4 273 261 299 289 229 185 257 296 280 254 170 179 223 197 201 227 237 26 51 41 11 4 354
243 236 229 223 222 217 207 196 192 189 218 278 318 278 240 190 182 209 85 281 278 101 104 246 50 69 108 145 172 143 228 159 121 133 137 147 197 46 221 212 155 170 188 160 195 240 108 162 186 163 157 184 193 210 170 160 163 167 140 86 78 4 340 348 286 249 266 324 304 221 178 237 271 269 265 155 185 229 208 196 299 16 55 70 28 340 357 347
246 234 225 219 221 221 216 216 204 196 223 260 331 303 190 170 185 91 56 242 261 77 90 108 97 53 92 128 170 133 152 151 113 140 125 163 241 323 223 244 127 132 170 187 205 305 69 190 190 152 161 201 193 164 146 160 165 147 101 328 208 156 141 180 227 270 304 316 268 223 184 242 271 266 265 186 195 225 238 261 315 33 60 75 357 350 348 332
249 232 222 215 209 207 210 220 220 216 227 237 331 314 188 176 140 97 232 239 223 62 67 93 116 134 141 148 182 209 165 86 97 127 156 172 268 288 261 306 80 113 86 279 228 101 88 33 321 158 172 186 153 101 50 72 89 95 14 324 279 177 134 155 221 298 343 277 243 242 240 329 298 274 242 193 181 194 227 255 267 11 17 344 3 7 334 332
252 228 216 208 203 199 197 215 224 221 228 232 283 328 227 172 69 189 224 248 2 21 142 139 144 143 160 162 169 196 171 116 138 149 167 157 122 216 221 138 94 81 186 239 233 131 102 73 276 238 158 128 116 105 42 43 62 78 67 356 342 357 76 68 348 65 14 264 253 316 327 7 257 265 254 205 172 161 166 282 298 320 322 321 1 342 316 354
257 227 214 210 207 203 197 207 224 219 224 224 183 30 232 152 185 220 224 10 343 222 129 135 176 171 184 186 159 178 172 144 164 173 169 163 167 191 202 189 155 140 220 216 202 116 144 216 173 84 281 195 158 142 104 60 93 126 152 112 44 345 343 334 283 191 205 251 260 323 335 303 239 251 257 267 269 130 110 114 197 267 296 324 335 303 319 26
261 228 212 208 205 203 203 197 180 187 194 190 151 58 179 193 218 223 225 256 283 268 44 69 141 156 179 193 168 171 187 163 164 186 188 171 186 205 218 223 193 167 203 178 154 141 266 298 168 153 252 217 193 169 152 178 168 166 169 156 155 157 310 276 274 253 237 270 266 309 340 280 270 268 245 250 252 129 116 138 154 156 233 307 296 286 29 26
265 226 206 201 201 202 201 190 162 150 152 142 134 143 171 216 230 208 215 245 275 4 32 78 99 121 178 215 182 158 188 224 162 179 195 171 190 206 209 225 217 189 81 145 171 178 207 282 206 178 158 176 190 196 166 143 146 172 152 114 131 145 191 239 267 264 270 297 282 308 323 221 243 266 216 192 155 129 134 163 168 155 151 147 293 287 79 15
267 219 200 192 192 195 193 189 184 155 138 122 138 187 191 219 228 185 216 235 248 6 76 108 110 133 210 248 231 177 188 226 169 171 199 189 200 203 187 204 207 193 152 177 210 183 197 244 199 192 246 167 167 238 156 96 112 174 99 87 140 182 173 215 280 270 252 341 283 247 249 223 221 265 241 157 149 149 149 179 177 149 135 70 306 273 105 27
251 205 195 188 186 190 191 191 178 148 137 122 155 196 213 223 216 208 223 213 203 162 126 142 146 166 228 222 210 218 202 123 169 171 207 215 230 221 200 196 191 190 187 179 189 175 171 235 185 150 273 124 20 324 25 73 140 150 95 145 204 169 123 127 294 314 96 83 265 225 257 286 302 298 291 137 155 174 177 198 167 136 119 353 286 245 125 91
233 189 186 188 188 187 187 185 161 141 135 138 177 201 225 234 241 243 286 23 309 165 145 211 198 169 211 216 202 213 191 125 178 182 191 198 232 218 204 210 180 187 196 189 218 190 133 154 224 177 128 352 341 329 8 7 128 110 152 209 192 96 86 98 289 333 42 256 261 216 255 288 330 304 302 128 201 235 214 201 159 152 154 246 269 234 130 154
245 190 189 193 190 184 182 177 151 136 127 150 194 221 231 229 240 250 273 310 317 287 201 233 208 166 190 208 198 188 179 179 178 186 191 188 237 206 185 198 190 190 198 172 218 242 118 140 253 312 91 160 310 312 320 329 30 93 190 218 106 106 121 118 160 309 288 275 278 250 268 275 216 242 244 204 221 222 208 204 204 205 188 216 261 220 137 163
277 207 210 197 189 181 175 166 144 131 139 166 197 226 231 237 237 243 271 299 313 282 265 258 246 206 193 187 161 160 181 190 167 179 203 189 236 208 174 183 194 186 185 152 175 218 117 169 237 308 357 129 135 243 194 193 48 58 315 284 78 168 161 157 173 166 203 281 296 289 300 277 216 210 203 204 208 193 189 220 238 228 198 208 244 205 155 172
272 229 300 185 182 173 162 153 136 134 175 174 199 216 210 246 240 237 260 283 299 261 256 275 275 258 234 198 152 155 186 202 177 193 227 194 220 236 190 169 144 144 53 90 175 165 116 182 200 279 314 145 181 220 190 176 157 143 168 178 178 158 127 160 241 149 156 227 284 297 300 276 233 200 204 204 193 177 178 209 235 226 195 204 233 203 171 169
246 253 246 175 170 159 148 140 137 168 176 179 207 221 223 237 233 234 248 256 259 249 246 274 275 280 289 268 217 160 171 205 196 204 238 214 215 236 218 143 145 151 101 68 211 203 165 182 161 158 209 205 217 260 170 169 164 165 176 181 180 156 129 131 257 241 127 166 229 269 292 278 259 215 219 194 167 167 175 196 225 218 192 204 232 202 170 160
247 268 215 174 165 153 144 157 178 166 190 192 193 201 203 208 221 234 235 230 231 233 263 297 282 276 277 269 242 172 165 198 203 203 228 224 218 237 298 9 140 151 138 117 208 224 153 144 141 152 187 202 231 312 1 296 179 180 201 185 169 162 158 157 192 217 145 161 188 92 270 276 272 188 177 152 154 166 173 192 217 214 192 198 230 212 166 156
272 303 271 178 169 157 155 201 171 171 216 193 186 188 163 184 214 220 223 229 224 196 209 252 257 262 273 284 269 196 189 203 203 205 229 234 218 280 318 305 149 151 143 117 167 197 113 132 150 160 85 63 315 277 317 344 34 219 247 206 177 176 168 156 164 167 147 176 150 107 246 268 286 123 128 125 145 169 181 199 210 210 195 192 223 221 168 156
284 301 325 189 189 185 185 190 175 196 208 183 195 203 190 204 207 200 211 220 213 190 204 232 228 231 256 288 301 225 217 219 216 213 223 239 228 305 324 302 174 167 166 164 185 188 194 178 153 158 163 68 335 305 292 303 235 223 237 196 184 140 110 112 148 131 147 201 173 156 252 260 273 65 101 120 147 181 206 213 205 197 193 194 215 218 179 160
288 278 354 208 218 234 252 198 190 199 197 196 210 203 196 214 211 206 211 211 209 207 202 216 220 279 280 281 303 258 233 232 239 224 204 223 296 330 329 329 323 310 342 327 303 228 201 203 172 172 194 204 198 205 227 210 181 225 222 188 189 164 145 151 150 149 218 206 171 180 243 262 275 248 172 167 192 223 230 216 207 197 189 193 204 206 186 166
313 272 276 235 242 271 290 281 280 209 197 198 208 205 204 212 213 203 208 214 217 215 216 214 209 336 292 254 254 255 246 240 238 234 209 178 100 338 332 349 359 7 340 327 322 322 201 264 228 205 214 210 192 198 201 137 136 189 196 183 190 184 174 172 153 182 195 167 196 225 237 276 286 272 255 226 209 228 229 200 205 206 191 194 197 196 191 171
273 264 263 304 263 251 259 270 272 235 206 197 191 190 203 213 224 193 196 212 217 206 216 226 202 218 234 231 240 247 246 245 234 222 214 151 118 307 317 2 353 3 350 330 324 39 91 262 248 232 238 228 151 153 177 142 149 181 178 179 189 185 179 187 204 206 147 129 245 243 210 247 271 271 274 268 240 239 232 203 209 205 189 193 190 185 192 177
255 274 289 316 291 268 270 266 260 249 226 205 191 190 202 208 212 206 194 202 210 190 189 215 211 213 217 218 230 241 239 243 239 222 189 123 141 202 114 24 249 173 27 344 335 85 144 238 235 222 250 258 162 153 176 169 178 180 175 183 185 183 187 196 211 211 162 183 244 242 186 228 260 272 278 277 271 266 253 232 216 188 175 181 181 182 191 183
271 282 299 309 298 300 298 290 284 266 242 231 217 205 205 204 206 211 198 178 199 196 194 211 215 211 214 214 218 231 231 231 233 222 187 165 184 174 151 215 208 167 135 262 298 98 165 244 201 176 262 276 260 216 185 186 222 219 202 197 187 191 198 199 211 218 207 227 250 255 257 264 267 267 269 275 282 283 274 260 227 194 185 181 180 187 193 188
300 11 311 304 277 283 287 284 287 278 253 251 250 224 211 209 207 209 199 178 192 195 195 218 224 211 210 211 213 226 229 223 230 227 180 180 208 187 184 195 152 149 181 188 228 264 182 205 121 119 268 270 252 242 216 203 228 234 221 210 199 200 204 206 217 221 218 242 254 260 273 276 268 262 264 273 280 282 271 260 241 216 203 187 181 189 195 192
223 192 270 291 296 286 288 289 283 278 254 241 251 248 236 228 215 212 215 201 201 199 190 211 224 217 208 212 216 227 230 227 233 232 193 192 204 197 208 190 141 150 182 185 180 167 171 199 73 98 235 248 227 229 232 252 278 257 234 215 212 208 201 206 214 207 202 223 243 257 266 258 260 268 272 255 252 254 249 244 240 223 199 184 182 186 195 196
279 263 236 254 299 293 290 297 286 277 270 240 240 241 245 248 232 222 229 210 205 216 205 207 218 217 207 215 219 224 229 230 237 246 223 215 208 182 190 178 155 157 166 174 175 153 167 181 135 144 209 261 274 223 175 54 304 269 229 200 213 216 204 210 221 215 209 209 217 231 235 241 253 273 277 250 228 226 232 226 222 216 196 188 187 183 192 201